Location: Newark
(49.8348°N, 24.0280°E)
Time: 20:27:17
(UTC+00:00)

Tiros 1 - All Passes

Search period start: 26 January 2020 00:00
Search period end: 05 February 2020 00:00
Orbit: 630 x 664 km, 48.4° (Epoch: 26 January)

Date Brightness Start Highest point End Pass type
(mag) Time Alt. Az. Time Alt. Az. Time Alt. Az.
26 Jan - 09:48:22 10° S 09:50:54 15° SE 09:53:28 10° ESE daylight
26 Jan - 11:27:48 10° SW 11:32:16 44° SSE 11:36:47 10° E daylight
26 Jan - 13:09:30 10° W 13:14:14 75° S 13:19:00 10° E daylight
26 Jan - 14:51:39 10° W 14:56:19 60° SSW 15:01:02 10° ESE daylight
26 Jan - 16:34:08 10° W 16:37:59 24° SW 16:41:51 10° SSE visible
27 Jan - 10:12:36 10° SSW 10:16:29 26° SE 10:20:23 10° E daylight
27 Jan - 11:53:32 10° WSW 11:58:10 62° SSE 12:02:52 10° E daylight
27 Jan - 13:35:32 10° W 13:40:16 74° S 13:45:03 10° ESE daylight
27 Jan - 15:17:44 10° W 15:22:13 41° SSW 15:26:43 10° SE daylight
27 Jan - 17:01:16 10° WSW 17:03:33 13° SW 17:05:50 10° SSW visible
28 Jan - 08:58:39 10° SSE 09:00:54 13° SE 09:03:11 10° ESE daylight
28 Jan - 10:37:50 10° SW 10:42:14 42° SSE 10:46:42 10° E daylight
28 Jan - 12:19:28 10° W 12:24:10 74° S 12:28:56 10° E daylight
28 Jan - 14:01:36 10° W 14:06:16 61° SSW 14:10:59 10° ESE daylight
28 Jan - 15:44:02 10° W 15:47:58 26° SW 15:51:54 10° SSE visible
29 Jan - 09:22:42 10° SSW 09:26:28 25° SE 09:30:16 10° E daylight
29 Jan - 11:03:31 10° WSW 11:08:07 60° SSE 11:12:48 10° E daylight
29 Jan - 12:45:30 10° W 12:50:13 75° S 12:54:59 10° E daylight
29 Jan - 14:27:41 10° W 14:32:11 43° SSW 14:36:42 10° SE daylight
29 Jan - 16:11:01 10° WSW 16:13:33 14° SW 16:16:05 10° S visible
30 Jan - 08:09:00 10° SSE 08:10:55 12° SE 08:12:51 10° ESE daylight
30 Jan - 09:47:51 10° SW 09:52:12 40° SSE 09:56:37 10° E daylight
30 Jan - 11:29:27 10° WSW 11:34:08 74° S 11:38:52 10° E daylight
30 Jan - 13:11:33 10° W 13:16:13 63° SSW 13:20:56 10° ESE daylight
30 Jan - 14:53:58 10° W 14:57:57 27° SSW 15:01:57 10° SSE daylight
31 Jan - 08:32:48 10° SSW 08:36:28 23° SE 08:40:09 10° E daylight
31 Jan - 10:13:30 10° WSW 10:18:05 58° SSE 10:22:44 10° E daylight
31 Jan - 11:55:28 10° W 12:00:10 75° S 12:04:55 10° E daylight
31 Jan - 13:37:38 10° W 13:42:08 45° SSW 13:46:41 10° SE daylight
31 Jan - 15:20:48 10° WSW 15:23:33 15° SW 15:26:18 10° S daylight
01 Feb - 07:19:26 10° SSE 07:20:56 11° SE 07:22:26 10° ESE daylight
01 Feb - 08:57:53 10° SW 09:02:11 38° SSE 09:06:32 10° E daylight
01 Feb - 10:39:25 10° WSW 10:44:04 73° S 10:48:47 10° E daylight
01 Feb - 12:21:31 10° W 12:26:10 65° SSW 12:30:52 10° ESE daylight
01 Feb - 14:03:53 10° W 14:07:56 28° SSW 14:12:00 10° SSE daylight
02 Feb - 07:42:56 10° SSW 07:46:28 22° SE 07:50:01 10° E daylight
02 Feb - 09:23:29 10° WSW 09:28:03 56° SSE 09:32:39 10° E daylight
02 Feb - 11:05:25 10° W 11:10:07 76° S 11:14:51 10° E daylight
02 Feb - 12:47:35 10° W 12:52:06 47° SSW 12:56:39 10° SE daylight
02 Feb - 14:30:38 10° W 14:33:33 16° SW 14:36:29 10° S daylight
03 Feb - 06:30:06 10° SE 06:30:57 10° SE 06:31:49 10° ESE daylight
03 Feb - 08:07:55 10° SW 08:12:09 36° SSE 08:16:27 10° E daylight
03 Feb - 09:49:23 10° WSW 09:54:02 72° S 09:58:43 10° E daylight
03 Feb - 11:31:28 10° W 11:36:07 66° SSW 11:40:49 10° ESE daylight
03 Feb - 13:13:48 10° W 13:17:54 30° SSW 13:22:02 10° SSE daylight
04 Feb - 06:53:03 10° S 06:56:27 20° SE 06:59:53 10° E daylight
04 Feb - 08:33:29 10° WSW 08:38:01 54° SSE 08:42:35 10° E daylight
04 Feb - 10:15:23 10° W 10:20:03 76° S 10:24:46 10° E daylight
04 Feb - 11:57:32 10° W 12:02:04 49° SSW 12:06:38 10° SE daylight
04 Feb - 13:40:28 10° W 13:43:32 17° SW 13:46:38 10° S daylight
